Location: Hermaringen
(48.5952°N, 10.2585°E)
Time: 02:18:43
(UTC+00:00)

Altair - Pass Details

Date: 19 February 2026
Orbit: 1502 x 1682 km, 47.2° (Epoch: 13 March)

Event Time Altitude Azimuth Distance (km) Brightness Sun altitude
Rises 10:49:34 0° 289° (WNW) 4,743 9.8 29.5°
Reaches altitude 10° 10:53:18 10° 277° (W) 3,785 9.5 29.6°
Maximum altitude 11:00:31 25° 228° (SW) 2,842 9.6 29.8°
Drops below altitude 10° 11:07:56 10° 178° (S) 3,879 11.2 30.0°
Sets 11:11:52 0° 166° (SSE) 4,885 11.3 30.0°
